This is the latest recevied weather packets stored in our database for station/object DG1UDO-13. If no packets are shown the sender has not sent any weather packets the latest 10 day(s).
| Time | Temp. | Humidity | Pressure | Rain* | Wind** | Luminosity | Snow |
|---|---|---|---|---|---|---|---|
| 1777966500 | 8.33° C | 91% | 1012.8 hPa | - | - | - | - |
| 1777964701 | 8.33° C | 92% | 1012.6 hPa | - | - | - | - |
| 1777962901 | 7.78° C | 92% | 1012.8 hPa | - | - | - | - |
| 1777961100 | 7.78° C | 92% | 1012.7 hPa | - | - | - | - |
| 1777959300 | 7.22° C | 92% | 1012.6 hPa | - | - | - | - |
| 1777957500 | 7.22° C | 92% | 1012.6 hPa | - | - | - | - |
| 1777955701 | 7.22° C | 93% | 1012.5 hPa | - | - | - | - |
| 1777953900 | 7.22° C | 94% | 1012.5 hPa | - | - | - | - |
| 1777952101 | 7.22° C | 94% | 1012.7 hPa | - | - | - | - |
| 1777950301 | 7.78° C | 94% | 1012.9 hPa | - | - | - | - |
| 1777948500 | 7.78° C | 92% | 1012.9 hPa | - | - | - | - |
| 1777946701 | 8.33° C | 89% | 1013 hPa | - | - | - | - |
| 1777944901 | 8.33° C | 87% | 1013.2 hPa | - | - | - | - |
| 1777943100 | 8.33° C | 89% | 1013.4 hPa | - | - | - | - |
| 1777941300 | 8.33° C | 89% | 1013.9 hPa | - | - | - | - |
| 1777939502 | 8.89° C | 88% | 1014 hPa | - | - | - | - |
| 1777937701 | 8.89° C | 87% | 1013.8 hPa | - | - | - | - |
| 1777935900 | 8.89° C | 87% | 1013.7 hPa | - | - | - | - |
| 1777934101 | 9.44° C | 88% | 1014 hPa | - | - | - | - |
| 1777932301 | 9.44° C | 90% | 1014.2 hPa | - | - | - | - |
| 1777930501 | 10° C | 92% | 1014.2 hPa | - | - | - | - |
| 1777928701 | 10° C | 91% | 1014.1 hPa | - | - | - | - |
| 1777926901 | 10° C | 90% | 1014.2 hPa | - | - | - | - |
| 1777925100 | 10.56° C | 89% | 1014.1 hPa | - | - | - | - |
| 1777923301 | 11.67° C | 86% | 1014.1 hPa | - | - | - | - |
* Rain since midnight (hover to see other rain measurements)
** Current wind speed in m/s (hover to see current wind gust speed)